Location: Miami
(25.7742°N, 80.1936°W)
Time: 00:11:46
(UTC-04:00)

ISS - Pass Details

Date: 17 June 2025
Orbit: 413 x 417 km, 51.6° (Epoch: 16 July)

Event Time Altitude Azimuth Distance (km) Brightness Sun altitude
Exits shadow 05:30:02 21° 222° (SW) 999 -2.5 -12.4°
Maximum altitude 05:32:09 87° 309° (NW) 420 -3.8 -12.0°
Drops below altitude 10° 05:35:30 10° 41° (NE) 1,492 0.4 -11.4°
Sets 05:37:36 0° 41° (NE) 2,358 1.7 -11.0°
